Lid_Strength_Index
4 5 5 6 6 6 6 6 6 7 7 7 7 6 6 6 6 6 7 6 7 7 6 6 5 5 6 8 9 5 5 4 4 3 4 6 8 8 9 9 9 9 9 8 7 8 8
5 5 6 6 6 6 6 6 6 7 7 7 7 7 7 7 7 7 7 7 6 6 6 6 5 5 7 10 6 6 6 5 5 4 4 5 7 6 8 9 9 9 8 9 8 8 8
5 5 6 6 6 6 6 6 7 7 7 7 7 7 7 7 7 7 7 7 6 6 6 5 5 5 7 8 5 5 5 5 5 4 5 5 4 6 7 9 8 8 10 10 9 8 9
5 5 6 6 6 6 6 6 6 7 7 7 7 7 7 7 7 7 7 7 6 6 5 4 4 5 9 5 4 5 4 5 4 5 5 4 4 6 7 7 9 11 11 13 9 8 7
5 5 6 6 6 6 6 6 7 7 7 8 8 8 7 7 7 7 7 6 6 5 5 4 5 5 8 5 5 3 3 5 5 5 5 5 6 8 8 11 12 11 14 13 11 8 7
4 5 5 6 6 7 7 7 7 7 8 8 8 7 7 7 7 7 6 7 5 5 4 4 4 7 5 7 5 3 2 3 5 5 7 8 8 10 10 11 15 13 12 11 11 8 9
5 5 5 6 6 6 7 6 6 7 8 8 8 7 7 7 7 6 7 6 7 6 6 9 9 8 8 6 4 6 4 4 5 6 9 8 11 12 11 10 10 11 11 12 10 7 9
5 5 5 5 6 6 6 6 6 7 7 8 7 7 7 7 7 6 6 8 9 8 10 8 7 7 5 5 7 6 4 7 6 9 7 9 11 9 9 9 11 11 11 11 8 7 8
5 5 5 5 6 6 6 6 6 7 7 8 7 7 7 7 7 6 7 8 6 6 9 9 6 6 6 4 6 6 5 6 7 8 8 9 8 7 9 10 11 9 10 10 10 8 8
5 5 5 5 5 5 6 6 7 7 7 7 7 7 7 7 8 7 7 6 5 4 9 10 7 6 6 5 6 3 3 5 6 8 7 8 6 7 9 10 9 11 7 8 9 10 12
5 5 6 5 6 6 7 7 7 7 7 7 7 7 7 7 7 7 7 5 4 5 15 9 7 3 5 6 5 5 3 5 8 7 7 8 8 8 9 9 8 10 7 9 9 10 11
5 5 5 6 6 6 7 6 7 7 7 7 7 7 6 6 5 6 5 4 4 11 15 11 8 9 8 7 6 5 5 4 5 7 7 7 5 6 7 7 8 7 8 9 9 10 15
5 5 6 6 6 6 6 7 7 7 7 7 7 7 7 5 6 4 3 5 10 14 10 11 11 9 9 9 8 7 7 7 9 11 10 8 8 6 6 9 7 8 11 15 16 17 17
5 5 5 6 6 7 7 7 7 7 7 7 7 7 7 4 3 2 3 7 14 12 12 9 10 10 11 9 9 9 9 9 7 8 10 11 12 8 6 8 10 10 11 15 18 17 16
6 6 5 6 6 7 7 7 7 7 7 6 6 4 3 2 1 1 5 11 12 11 10 11 10 12 11 10 11 10 9 9 8 8 13 12 11 7 7 6 7 9 12 8 12 12 15
5 5 5 6 6 7 7 7 7 7 6 5 5 4 4 1 0 3 7 12 11 9 10 10 13 12 12 11 12 10 10 7 10 8 7 10 13 8 7 7 7 8 8 14 13 18 18
6 6 5 6 6 7 7 7 7 6 5 5 4 6 3 1 1 5 9 10 11 9 9 10 11 12 11 11 10 10 10 8 8 8 7 9 11 11 8 10 11 10 12 12 12 13 17
6 6 5 6 7 7 6 6 5 5 3 4 4 6 2 1 5 6 8 10 10 9 8 9 9 10 10 9 10 10 10 8 6 6 10 9 12 14 11 8 7 9 10 11 15 15 13
6 5 6 6 7 6 5 4 4 3 3 3 5 5 2 2 9 8 9 10 9 10 9 10 10 8 7 8 11 9 8 6 5 7 9 10 13 16 12 11 8 10 10 10 11 12 15
6 5 6 6 5 4 4 4 3 3 3 3 4 7 5 4 5 8 11 11 11 8 9 8 8 7 8 9 7 10 9 7 6 6 7 8 11 13 15 13 11 12 10 10 11 15 14
5 6 6 5 4 4 3 2 3 3 2 2 4 7 6 9 8 8 9 10 11 11 8 8 9 8 9 10 9 9 8 7 6 7 8 10 14 12 11 11 11 12 11 11 12 11 14
5 5 5 4 3 3 2 3 3 3 2 3 6 5 6 7 8 9 11 10 11 10 10 10 10 9 9 10 9 10 8 8 9 8 9 9 13 13 13 9 10 11 10 10 10 10 10
5 5 4 4 3 2 2 3 2 2 3 3 3 3 5 9 8 9 9 10 10 9 8 8 8 9 9 8 7 6 5 6 6 8 10 12 12 14 16 11 10 13 11 11 10 8 9
5 4 4 3 2 2 2 2 3 2 3 2 2 3 6 9 8 9 9 9 9 8 9 8 7 8 6 4 4 5 5 6 6 7 8 11 12 13 15 12 18 11 8 8 10 9 8
4 4 4 3 2 2 2 2 2 2 2 2 2 3 5 8 7 9 9 8 7 7 7 7 6 5 3 5 9 10 9 9 9 8 8 8 12 14 15 16 13 11 9 9 10 12 8
4 4 2 2 2 2 2 2 2 2 2 2 2 2 4 7 8 7 8 7 8 8 7 7 4 3 4 8 10 13 14 11 12 11 7 8 8 12 11 15 17 12 8 6 6 13 8
4 4 3 3 3 3 2 2 2 2 1 1 1 0 3 7 5 5 7 8 6 7 8 6 6 6 5 9 12 14 13 9 12 12 12 11 11 13 12 13 11 8 7 6 13 14 8
3 3 3 3 3 2 2 2 2 1 1 1 2 1 3 5 5 4 4 7 6 6 8 6 7 7 8 11 12 11 13 10 10 9 11 11 12 12 11 13 16 7 7 11 9 7 8
4 3 3 3 2 2 1 1 1 1 1 1 4 0 2 6 4 2 2 1 2 3 5 4 6 7 7 9 9 9 12 10 11 13 8 12 11 13 12 14 8 7 8 7 8 10 10